TimeCST,TemperatureF,Dew PointF,Humidity,Sea Level PressureIn,VisibilityMPH,Wind Direction,Wind SpeedMPH,Gust SpeedMPH,PrecipitationIn,Events,Conditions,WindDirDegrees,DateUTC
12:15 AM,26.6,24.8,93,29.61,7.0,North,19.6,29.9,N/A,Snow,Light Snow,350,2013-01-30 06:15:00
12:35 AM,24.8,24.8,100,29.62,7.0,North,25.3,36.8,N/A,Snow,Light Snow,350,2013-01-30 06:35:00
12:55 AM,24.8,23.0,93,29.62,7.0,North,21.9,34.5,N/A,Snow,Light Snow,350,2013-01-30 06:55:00
1:15 AM,24.8,23.0,93,29.62,8.0,North,24.2,34.5,N/A,Snow,Light Snow,350,2013-01-30 07:15:00
1:35 AM,24.8,23.0,93,29.62,8.0,NNW,24.2,34.5,N/A,Snow,Light Snow,340,2013-01-30 07:35:00
1:55 AM,24.8,23.0,93,29.61,8.0,North,24.2,34.5,N/A,Snow,Light Snow,350,2013-01-30 07:55:00
2:15 AM,24.8,23.0,93,29.62,10.0,North,23.0,29.9,N/A,Snow,Light Snow,350,2013-01-30 08:15:00
2:35 AM,24.8,23.0,93,29.62,10.0,North,24.2,36.8,N/A,Snow,Light Snow,350,2013-01-30 08:35:00
2:55 AM,24.8,23.0,93,29.63,9.0,North,23.0,32.2,N/A,Snow,Light Snow,350,2013-01-30 08:55:00
3:15 AM,24.8,23.0,93,29.64,9.0,North,24.2,32.2,N/A,Snow,Light Snow,350,2013-01-30 09:15:00
3:35 AM,24.8,21.2,86,29.64,6.0,North,20.7,33.4,N/A,Snow,Light Snow,350,2013-01-30 09:35:00
3:55 AM,23.0,21.2,93,29.63,0.8,North,24.2,33.4,N/A,,Overcast,350,2013-01-30 09:55:00
4:15 AM,23.0,21.2,93,29.61,0.8,North,20.7,29.9,N/A,,Overcast,350,2013-01-30 10:15:00
4:35 AM,23.0,21.2,93,29.61,1.0,North,21.9,32.2,N/A,,Overcast,350,2013-01-30 10:35:00
4:55 AM,23.0,21.2,93,29.59,1.5,North,25.3,35.7,N/A,,Overcast,350,2013-01-30 10:55:00
5:15 AM,23.0,21.2,93,29.56,1.2,North,27.6,34.5,N/A,,Overcast,350,2013-01-30 11:15:00
5:35 AM,21.2,19.4,93,29.59,1.5,North,19.6,39.1,N/A,Snow,Light Snow,350,2013-01-30 11:35:00
6:15 AM,21.2,17.6,86,29.62,7.0,North,21.9,31.1,N/A,Snow,Light Snow,350,2013-01-30 12:15:00
6:35 AM,21.2,15.8,80,29.62,10.0,NNW,23.0,33.4,N/A,,Freezing Rain,340,2013-01-30 12:35:00
6:55 AM,19.4,15.8,86,29.63,10.0,NNW,21.9,29.9,N/A,,Freezing Rain,340,2013-01-30 12:55:00
7:15 AM,19.4,15.8,86,29.63,10.0,NNW,20.7,31.1,N/A,,Freezing Rain,340,2013-01-30 13:15:00
7:35 AM,19.4,14.0,80,29.63,10.0,NNW,21.9,31.1,N/A,,Freezing Rain,340,2013-01-30 13:35:00
7:55 AM,17.6,14.0,86,29.65,10.0,NNW,23.0,32.2,N/A,,Freezing Rain,340,2013-01-30 13:55:00
8:15 AM,17.6,12.2,79,29.66,10.0,NNW,20.7,28.8,N/A,,Freezing Rain,340,2013-01-30 14:15:00
8:35 AM,17.6,12.2,79,29.66,10.0,NNW,21.9,31.1,N/A,Snow,Light Snow,330,2013-01-30 14:35:00
8:55 AM,17.6,12.2,79,29.67,10.0,NNW,24.2,31.1,N/A,,Freezing Rain,340,2013-01-30 14:55:00
9:15 AM,17.6,12.2,79,29.66,10.0,NNW,23.0,34.5,N/A,Snow,Light Snow,330,2013-01-30 15:15:00
9:35 AM,17.6,10.4,73,29.66,9.0,NNW,27.6,35.7,N/A,Snow,Light Snow,340,2013-01-30 15:35:00
9:55 AM,15.8,10.4,79,29.66,8.0,NNW,28.8,36.8,N/A,Snow,Light Snow,330,2013-01-30 15:55:00
10:15 AM,15.8,10.4,79,29.67,8.0,NNW,25.3,38.0,N/A,Snow,Light Snow,330,2013-01-30 16:15:00
10:35 AM,15.8,10.4,79,29.67,8.0,NNW,25.3,39.1,N/A,Snow,Light Snow,330,2013-01-30 16:35:00
10:55 AM,15.8,10.4,79,29.68,6.0,NNW,24.2,39.1,N/A,Snow,Light Snow,330,2013-01-30 16:55:00
11:15 AM,15.8,10.4,79,29.68,8.0,NW,26.5,36.8,N/A,Snow,Light Snow,320,2013-01-30 17:15:00
11:35 AM,15.8,10.4,79,29.68,8.0,NNW,26.5,34.5,N/A,Snow,Light Snow,330,2013-01-30 17:35:00
11:55 AM,17.6,10.4,73,29.68,8.0,NNW,23.0,34.5,N/A,Snow,Light Snow,330,2013-01-30 17:55:00
12:15 PM,17.6,10.4,73,29.67,5.0,NNW,25.3,33.4,N/A,Snow,Light Snow,330,2013-01-30 18:15:00
12:35 PM,15.8,10.4,79,29.67,7.0,NNW,27.6,34.5,N/A,Snow,Light Snow,330,2013-01-30 18:35:00
12:55 PM,17.6,10.4,73,29.68,7.0,NNW,23.0,34.5,N/A,Snow,Light Snow,330,2013-01-30 18:55:00
1:15 PM,17.6,10.4,73,29.67,10.0,NNW,25.3,35.7,N/A,Snow,Light Snow,330,2013-01-30 19:15:00
1:35 PM,17.6,10.4,73,29.67,10.0,NW,25.3,35.7,N/A,Snow,Light Snow,320,2013-01-30 19:35:00
1:55 PM,19.4,10.4,68,29.67,10.0,NNW,26.5,35.7,N/A,Snow,Light Snow,330,2013-01-30 19:55:00
2:15 PM,19.4,10.4,68,29.67,10.0,NNW,28.8,38.0,N/A,Snow,Light Snow,330,2013-01-30 20:15:00
2:35 PM,17.6,10.4,73,29.67,10.0,NNW,27.6,34.5,N/A,Snow,Light Snow,330,2013-01-30 20:35:00
2:55 PM,17.6,10.4,73,29.68,10.0,NNW,25.3,36.8,N/A,Snow,Light Snow,330,2013-01-30 20:55:00
3:15 PM,17.6,10.4,73,29.69,6.0,NW,25.3,35.7,N/A,Snow,Light Snow,320,2013-01-30 21:15:00
3:35 PM,17.6,10.4,73,29.70,9.0,NW,23.0,29.9,N/A,Snow,Light Snow,320,2013-01-30 21:35:00
3:55 PM,17.6,10.4,73,29.70,6.0,NNW,25.3,32.2,N/A,Snow,Light Snow,330,2013-01-30 21:55:00
4:15 PM,17.6,10.4,73,29.71,9.0,NNW,24.2,32.2,N/A,Snow,Light Snow,330,2013-01-30 22:15:00
4:35 PM,17.6,10.4,73,29.71,10.0,NNW,20.7,28.8,N/A,Snow,Light Snow,330,2013-01-30 22:35:00
4:55 PM,17.6,10.4,73,29.72,8.0,NW,20.7,29.9,N/A,Snow,Light Snow,320,2013-01-30 22:55:00
5:15 PM,17.6,10.4,73,29.73,10.0,NW,18.4,29.9,N/A,,Overcast,320,2013-01-30 23:15:00
5:35 PM,17.6,10.4,73,29.73,10.0,NNW,21.9,28.8,N/A,Snow,Light Snow,330,2013-01-30 23:35:00
5:55 PM,15.8,8.6,73,29.73,10.0,NNW,23.0,29.9,N/A,Rain,Freezing Rain,330,2013-01-30 23:55:00
6:15 PM,15.8,8.6,73,29.74,10.0,NW,18.4,29.9,N/A,,Overcast,320,2013-01-31 00:15:00
6:35 PM,15.8,8.6,73,29.74,10.0,NW,19.6,26.5,N/A,,Overcast,320,2013-01-31 00:35:00
6:55 PM,15.8,8.6,73,29.75,10.0,NW,18.4,25.3,N/A,,Overcast,320,2013-01-31 00:55:00
7:15 PM,15.8,8.6,73,29.75,10.0,NW,17.3,27.6,N/A,Snow,Light Snow,320,2013-01-31 01:15:00
7:35 PM,14.0,6.8,73,29.75,10.0,NW,20.7,27.6,N/A,,Overcast,320,2013-01-31 01:35:00
7:55 PM,14.0,6.8,73,29.76,10.0,NW,19.6,26.5,N/A,,Overcast,320,2013-01-31 01:55:00
8:15 PM,14.0,5.0,67,29.76,10.0,NW,16.1,29.9,N/A,Snow,Light Snow,320,2013-01-31 02:15:00
8:35 PM,12.2,5.0,73,29.76,10.0,NW,19.6,26.5,N/A,Snow,Light Snow,320,2013-01-31 02:35:00
8:55 PM,12.2,5.0,73,29.77,10.0,NW,20.7,29.9,N/A,,Mostly Cloudy,320,2013-01-31 02:55:00
9:15 PM,10.4,5.0,79,29.78,10.0,NW,15.0,21.9,N/A,,Scattered Clouds,320,2013-01-31 03:15:00
9:35 PM,10.4,5.0,79,29.78,10.0,NW,11.5,19.6,N/A,,Mostly Cloudy,320,2013-01-31 03:35:00
9:55 PM,10.4,3.2,73,29.78,9.0,NW,15.0,23.0,N/A,,Freezing Rain,320,2013-01-31 03:55:00
10:15 PM,10.4,3.2,73,29.78,10.0,NW,10.4,18.4,N/A,,Clear,320,2013-01-31 04:15:00
10:35 PM,10.4,3.2,73,29.78,10.0,NW,11.5,-,N/A,,Partly Cloudy,310,2013-01-31 04:35:00
10:55 PM,10.4,3.2,73,29.79,10.0,WNW,11.5,17.3,N/A,,Scattered Clouds,300,2013-01-31 04:55:00
11:15 PM,10.4,3.2,73,29.79,10.0,WNW,13.8,19.6,N/A,Snow,Light Snow,300,2013-01-31 05:15:00
11:35 PM,8.6,3.2,79,29.80,9.0,NW,17.3,-,N/A,,Freezing Rain,310,2013-01-31 05:35:00
11:55 PM,8.6,3.2,79,29.80,10.0,NW,17.3,23.0,N/A,,Overcast,310,2013-01-31 05:55:00